Probability
0 0 0 0 0 0 0 0 1 2 3 3 3 4 5 3 1 0 0 0 0 0 0 0 0 0 0 1 0 0 0 0 0 0 0 0 0 0 0 0 0 0 0
0 0 0 0 0 0 0 0 0 1 2 3 3 4 4 3 1 0 0 0 0 0 0 0 0 0 1 2 1 0 0 0 0 0 0 0 0 0 0 0 0 0 0
0 0 0 0 1 1 1 1 0 0 1 3 3 3 4 3 1 0 0 0 0 0 0 0 0 1 2 3 2 0 0 0 0 0 0 0 0 0 0 0 0 0 0
0 0 0 0 1 2 3 2 1 0 1 2 3 3 3 2 1 0 0 0 0 0 0 0 0 1 2 2 1 0 0 0 0 0 0 0 0 0 0 0 0 0 0
0 0 0 0 2 3 3 3 2 1 1 1 2 3 2 1 0 0 0 0 0 0 0 0 0 1 2 1 0 0 0 0 0 0 0 0 0 0 0 0 0 0 0
0 0 0 0 1 3 3 3 3 2 1 1 2 3 2 1 0 0 0 0 0 0 0 0 0 1 2 1 0 0 0 0 0 0 0 0 0 0 0 0 0 0 0
0 0 0 0 1 2 3 2 3 3 2 1 2 3 3 2 1 1 0 0 0 0 0 0 0 1 1 0 0 0 0 0 0 0 0 0 0 0 0 1 2 1 1
0 0 0 0 1 2 2 3 3 3 2 1 1 2 3 3 2 1 0 0 0 0 0 0 0 0 0 0 0 0 0 0 0 0 0 0 0 0 1 2 3 3 2
0 0 0 0 0 1 1 2 2 2 2 1 0 0 1 2 1 0 0 0 0 0 0 0 0 0 0 0 0 0 0 0 0 0 0 0 0 0 1 2 3 3 3
0 0 0 0 0 0 0 1 1 1 1 0 0 0 0 0 0 0 0 0 0 0 0 0 0 0 0 0 0 0 0 0 0 0 0 0 0 0 1 2 3 3 3
0 0 0 0 0 0 0 0 0 0 0 0 0 0 0 0 0 0 0 0 0 0 0 0 0 0 0 0 0 0 0 0 0 0 0 0 0 0 1 2 3 3 3
0 0 0 0 0 0 0 0 0 0 0 0 0 0 0 0 0 0 0 0 0 0 0 0 0 0 0 0 0 0 0 0 0 0 0 0 0 0 1 2 3 3 3
0 0 0 0 0 0 0 0 0 1 1 0 0 0 0 0 0 0 0 0 0 0 0 0 0 0 0 0 0 0 0 0 0 0 0 0 0 0 0 2 3 3 3
0 0 0 0 0 0 0 0 0 1 1 1 0 0 0 0 0 0 0 0 0 0 0 0 0 0 0 0 0 0 0 0 0 0 0 0 0 0 1 2 3 3 3
0 0 0 0 0 0 0 0 0 0 1 1 0 0 0 0 0 0 0 0 0 0 0 0 0 0 0 0 0 0 0 0 0 0 0 0 0 0 1 2 3 2 1
0 0 0 0 0 0 0 0 0 0 0 0 0 0 0 0 0 0 0 0 0 0 0 0 0 0 0 0 0 0 0 0 0 0 0 0 0 0 1 2 2 1 0
0 0 0 0 0 0 0 0 0 0 0 0 0 0 0 0 0 0 0 0 0 0 0 0 0 0 0 0 0 0 0 0 0 0 0 0 0 0 0 1 1 0 0
0 0 0 0 0 0 0 0 0 0 0 0 0 0 0 0 0 0 0 0 0 0 0 0 0 0 0 0 0 0 0 0 0 0 0 0 0 0 0 0 0 0 0
0 0 0 0 0 0 0 0 0 0 1 1 1 0 0 0 0 0 0 0 0 0 0 0 0 0 0 0 0 0 0 0 0 0 0 0 0 0 0 0 0 0 0
0 0 0 0 0 0 0 0 0 0 1 2 2 1 0 0 0 0 0 0 0 0 0 0 0 0 0 0 0 0 0 0 0 0 0 0 0 0 0 0 0 0 0
0 0 0 0 0 0 0 0 0 0 0 1 1 1 0 0 0 0 0 0 0 0 0 0 0 0 0 0 0 0 0 0 0 0 0 0 0 0 0 0 0 0 0
0 0 0 0 0 0 0 0 0 0 0 0 0 0 0 0 0 0 0 0 0 0 0 0 0 0 0 0 0 0 0 0 0 0 0 0 0 0 0 0 0 0 0
0 0 0 0 0 0 0 0 0 0 0 0 0 0 0 0 0 0 0 0 0 0 0 0 0 0 0 0 0 0 0 0 0 0 0 0 0 0 0 0 0 0 0
0 0 0 0 0 0 0 0 0 0 0 0 0 0 0 0 0 0 0 0 0 0 0 0 0 0 0 0 0 0 0 0 0 0 0 0 0 0 0 0 0 0 0
0 0 0 0 0 0 0 0 0 0 0 0 0 0 0 0 0 0 0 0 0 0 0 0 0 0 0 0 0 0 0 0 0 0 0 0 0 0 0 0 0 0 0
0 0 0 0 0 0 0 0 0 0 0 0 0 0 0 0 0 0 0 0 0 0 0 0 0 0 0 0 0 0 0 0 0 0 0 0 0 0 0 0 0 0 0
Wind_Speed
2 2 3 3 5 7 7 7 7 8 8 8 9 9 9 8 8 8 8 7 7 8 8 9 10 10 11 11 11 11 11 11 10 10 10 10 10 11 11 11 9 6 12
3 3 3 4 6 7 7 7 7 7 7 7 8 8 8 8 7 7 7 7 8 8 9 9 10 10 11 11 11 11 11 11 11 11 10 9 9 10 10 10 9 6 10
3 3 3 5 7 7 7 7 7 7 7 7 7 8 7 7 7 7 7 7 7 7 8 9 10 10 10 10 10 10 11 11 11 11 10 5 6 9 10 10 9 10 10
3 3 3 5 7 7 7 7 7 7 7 7 7 7 7 7 7 7 7 6 6 6 8 9 9 9 9 10 10 10 10 10 10 10 6 4 4 8 9 9 9 10 10
2 2 3 5 6 6 6 7 7 7 6 6 6 7 7 6 6 7 6 6 6 6 7 8 9 9 9 9 9 9 10 10 10 8 5 4 4 7 9 9 9 10 10
3 2 3 5 6 6 6 6 7 6 6 6 6 5 6 6 6 6 6 6 6 6 7 8 8 8 8 8 8 9 10 9 8 5 4 4 3 6 8 8 9 9 9
2 2 2 4 5 5 5 6 6 6 6 5 5 5 5 5 6 6 6 6 6 6 6 7 7 7 8 8 8 8 9 8 5 4 3 3 4 6 7 8 8 8 8
3 2 2 3 3 3 4 5 6 6 5 5 5 5 4 5 6 6 6 6 6 6 6 6 6 7 7 7 7 7 7 7 5 3 2 2 4 6 6 7 7 7 6
3 3 2 1 2 2 2 4 5 5 5 5 4 4 4 4 5 6 5 5 5 5 5 5 6 6 6 6 6 6 7 7 4 2 2 1 4 5 5 6 6 5 5
2 2 2 1 1 1 2 3 4 4 4 4 4 5 5 4 4 5 5 5 5 5 5 5 5 5 6 6 6 5 6 5 3 2 1 1 3 4 4 4 4 4 4
1 1 2 1 1 1 1 2 3 4 4 4 4 5 5 3 3 3 4 5 5 5 5 5 4 5 5 5 5 5 4 2 2 1 1 2 2 3 3 3 3 3 3
3 2 2 1 1 1 1 1 1 2 2 2 2 3 2 2 2 3 4 5 5 5 4 4 5 4 3 2 2 3 1 2 1 1 1 1 1 2 2 2 2 2 2
4 3 2 2 1 1 1 1 1 1 1 2 2 3 2 2 2 2 2 2 3 4 3 3 3 2 2 1 1 1 1 1 1 1 2 2 0 1 1 1 1 1 1
3 4 3 3 2 2 2 1 1 1 1 1 2 3 2 2 2 2 1 1 1 1 1 1 1 2 2 1 1 1 1 1 0 1 2 2 1 1 1 1 1 1 1
4 4 4 4 3 2 2 2 1 2 2 2 2 2 3 3 2 2 1 1 1 1 1 1 1 1 1 1 1 1 0 0 0 0 1 3 2 2 2 2 2 2 2
5 5 4 4 4 3 2 2 2 2 2 2 2 2 3 3 3 2 1 1 1 1 1 1 1 1 1 1 0 0 0 0 1 1 1 2 3 3 4 3 2 2 2
5 4 4 4 4 4 3 2 2 2 2 2 2 2 3 3 3 3 2 2 1 1 1 1 1 1 1 0 0 1 0 0 0 1 1 1 1 3 3 3 3 3 3
4 4 4 4 4 3 3 2 2 2 2 1 1 2 2 2 3 2 2 2 2 2 2 1 1 1 0 0 0 0 1 1 0 0 0 1 1 1 2 3 3 4 4
5 4 4 4 4 4 3 2 2 2 2 2 2 1 1 2 2 2 2 2 2 2 2 1 1 1 1 0 0 0 0 1 1 1 0 1 1 1 1 3 4 5 5
4 4 4 4 3 3 2 1 1 1 1 1 2 2 2 2 2 2 2 2 2 2 2 2 1 1 1 1 0 0 1 1 1 1 1 1 1 1 1 2 2 3 5
4 4 4 4 3 3 2 2 2 2 2 2 2 2 3 2 2 2 1 2 2 2 2 2 2 1 1 0 1 1 1 1 1 1 1 1 1 1 1 1 1 2 2
5 5 5 5 4 4 3 3 2 2 2 2 2 2 3 3 3 2 3 2 2 2 2 2 2 1 1 1 1 0 2 2 2 2 1 1 2 1 2 2 2 2 2
5 6 5 5 5 4 3 2 2 1 1 1 1 2 2 3 3 2 3 2 2 3 3 3 3 3 2 1 1 2 2 3 2 2 2 2 2 2 2 2 2 2 2
4 4 4 4 4 4 4 3 4 3 3 4 2 2 1 2 3 3 3 3 2 2 3 3 3 2 3 2 1 1 1 2 1 2 3 2 2 3 3 2 2 3 2
3 3 3 3 3 3 4 4 4 4 3 2 1 3 2 2 3 3 3 3 3 2 3 3 3 3 2 3 3 2 1 1 1 2 3 3 3 3 3 3 2 2 2
1 1 2 3 3 3 3 4 5 5 4 3 3 3 3 2 2 3 3 3 3 3 3 3 3 4 3 3 3 3 3 2 3 2 3 3 3 3 2 2 2 2 2
Wind_Direction
208 220 217 168 146 135 131 126 124 124 122 121 118 115 111 109 107 104 102 103 99 98 95 92 90 86 81 78 75 75 75 70 67 68 72 77 81 83 82 78 73 65 75
175 187 194 164 148 138 136 131 125 121 121 123 121 118 115 112 109 107 104 102 99 100 99 95 91 87 83 79 77 78 76 72 68 65 65 68 76 83 84 81 80 78 78
141 161 166 153 144 140 138 133 128 122 120 122 123 121 121 119 116 113 108 105 103 103 102 100 96 91 86 82 81 79 78 76 73 67 59 46 64 81 83 82 80 80 79
137 143 149 141 138 141 141 137 132 126 124 121 121 122 123 125 126 117 111 108 107 106 105 103 99 93 88 85 83 81 80 77 74 67 50 39 48 80 82 80 80 81 79
115 124 143 133 136 138 144 143 139 133 129 127 123 123 124 126 125 119 112 108 107 107 109 106 103 97 92 91 88 85 83 76 69 59 47 41 44 77 81 79 80 78 77
106 99 133 126 136 138 142 145 144 140 136 132 126 123 126 126 123 118 112 106 101 104 109 107 103 100 97 96 93 88 83 76 63 52 47 42 47 77 84 83 81 78 77
114 97 111 118 129 137 144 150 146 143 141 137 131 125 126 129 124 120 116 109 104 104 107 107 105 104 102 100 95 91 87 77 66 54 47 43 59 76 84 85 83 79 76
126 109 100 115 119 126 146 154 148 146 142 136 129 125 121 121 123 117 116 112 107 104 109 109 109 108 105 102 96 91 83 74 66 56 44 47 68 77 87 86 81 81 78
115 114 104 101 118 120 136 149 145 142 139 132 126 116 108 104 107 107 108 111 109 106 106 111 111 111 109 103 95 89 81 71 62 48 43 45 75 85 91 91 89 86 81
114 120 111 92 86 133 139 141 132 130 130 124 115 99 89 88 89 91 97 104 108 104 98 101 109 112 107 102 96 87 77 66 53 39 25 55 80 94 96 98 99 94 86
145 144 129 119 98 108 127 121 125 119 115 108 104 96 89 78 71 74 80 93 97 94 91 87 94 101 96 91 89 82 70 53 46 24 11 67 99 108 109 108 108 107 103
197 192 167 159 150 124 115 103 120 121 115 106 100 99 94 87 80 73 71 79 80 77 75 75 74 80 80 69 70 73 66 50 41 359 358 47 112 119 126 124 117 113 115
198 188 186 177 162 162 140 115 111 114 110 108 111 108 103 91 87 74 68 60 61 64 60 59 55 59 70 75 81 81 74 66 22 336 336 336 214 175 161 162 156 155 156
195 198 191 175 165 171 157 137 134 139 140 140 132 124 118 110 103 104 100 89 76 72 80 70 78 76 73 67 87 97 86 74 10 322 321 320 280 236 232 219 214 217 212
204 201 194 179 171 164 164 163 155 172 168 165 150 147 140 137 136 130 136 123 111 97 95 92 94 93 86 70 73 95 107 159 257 294 309 325 299 263 254 245 238 239 232
213 204 190 186 174 163 173 181 184 184 174 166 164 169 157 152 145 143 148 147 137 125 126 120 116 107 106 110 82 184 204 235 263 284 311 319 318 299 270 261 265 265 261
211 201 194 192 175 169 177 187 189 186 177 183 174 173 168 159 152 157 163 166 165 142 130 110 89 76 91 90 51 339 283 246 267 298 321 323 316 320 304 289 290 289 284
200 197 197 188 178 180 181 179 176 165 160 182 169 168 174 169 160 162 167 175 169 144 140 134 131 109 78 34 323 316 328 306 276 287 348 339 332 328 323 322 317 308 300
197 193 189 187 182 185 183 174 174 166 169 177 166 163 169 155 161 170 172 171 160 152 151 160 150 162 170 254 272 302 324 304 290 288 316 321 310 318 319 324 328 322 314
193 187 186 188 186 174 164 149 150 161 185 183 178 178 172 166 163 155 159 163 158 152 154 160 165 153 172 181 250 330 295 267 269 273 274 290 297 309 314 318 319 316 313
185 181 185 187 187 169 165 170 185 204 206 201 196 185 174 167 163 158 151 156 162 172 179 174 168 161 186 141 74 338 313 261 251 257 268 275 283 288 303 300 299 301 301
192 190 188 191 191 191 189 182 190 182 200 200 188 187 179 175 170 169 164 169 172 170 173 183 177 166 180 166 136 103 315 316 297 262 266 265 279 294 290 288 291 286 284
199 196 197 195 195 198 186 159 129 109 90 182 201 210 199 180 174 168 170 167 178 179 188 194 188 181 190 205 179 160 167 242 298 297 270 262 274 271 274 280 276 276 274
213 199 195 191 192 191 180 181 179 187 202 213 210 207 201 187 185 180 173 173 179 189 198 204 201 202 181 197 209 215 184 172 198 292 298 274 265 256 263 271 268 270 270
202 191 191 186 191 192 189 193 197 206 210 193 177 188 197 201 195 188 185 183 189 197 206 205 204 204 203 200 192 185 185 181 203 204 267 288 289 258 254 260 265 268 267
175 181 178 183 198 200 200 203 206 210 203 188 198 201 205 207 208 202 197 195 201 206 210 210 208 209 213 212 207 195 184 183 197 196 231 253 266 274 273 258 254 256 250